This is the latest recevied weather packets stored in our database for station/object K4SPB-4. If no packets are shown the sender has not sent any weather packets the latest 10 day(s).
| Time | Temp. | Humidity | Pressure | Rain* | Wind** | Luminosity | Snow |
|---|---|---|---|---|---|---|---|
| 1778422223 | 22.78° C | 80% | 1015.6 hPa | 0 mm | - | - | - |
| 1778421943 | 22.22° C | 81% | 1015.4 hPa | 0 mm | - | - | - |
| 1778421321 | 21.67° C | 82% | 1015.4 hPa | 0 mm | - | - | - |
| 1778419535 | 20.56° C | 85% | 1015.3 hPa | 0 mm | - | - | - |
| 1778418028 | 20° C | 86% | 1015.1 hPa | 0 mm | - | - | - |
| 1778417446 | 19.44° C | 87% | 1015 hPa | 0 mm | - | - | - |
| 1778416225 | 18.33° C | 89% | 1014.9 hPa | 0 mm | - | - | - |
| 1778414449 | 16.11° C | 91% | 1014.9 hPa | 0 mm | - | - | - |
| 1778413230 | 15.56° C | 92% | 1014.7 hPa | 0 mm | - | - | - |
| 1778412630 | 15° C | 92% | 1014.6 hPa | 0 mm | - | - | - |
| 1778409041 | 15.56° C | 91% | 1013.8 hPa | 0 mm | - | - | - |
| 1778407247 | 15.56° C | 90% | 1013.5 hPa | 0 mm | - | - | - |
| 1778404217 | 16.11° C | 88% | 1012.7 hPa | 0 mm | - | - | - |
| 1778403033 | 16.11° C | 87% | 1012.7 hPa | 0 mm | - | - | - |
| 1778402450 | 16.11° C | 86% | 1012.7 hPa | 0 mm | - | - | - |
| 1778394021 | 16.67° C | 75% | 1012.2 hPa | 0 mm | - | - | - |
| 1778391029 | 17.22° C | 72% | 1012.1 hPa | 0 mm | - | - | - |
| 1778381432 | 20° C | 63% | 1012 hPa | 0 mm | - | - | - |
| 1778380829 | 20° C | 62% | 1011.9 hPa | 0 mm | - | - | - |
| 1778380227 | 20° C | 61% | 1011.7 hPa | 0 mm | - | - | - |
| 1778376694 | 22.22° C | 50% | 1010.9 hPa | 0 mm | - | - | - |
| 1778376032 | 22.78° C | 48% | 1010.6 hPa | 0 mm | - | - | - |
| 1778374829 | 23.89° C | 45% | 1010.4 hPa | 0 mm | - | - | - |
| 1778371235 | 26.11° C | 37% | 1009.7 hPa | 0 mm | - | - | - |
| 1778370632 | 26.11° C | 37% | 1009.6 hPa | 0 mm | - | - | - |
* Rain latest hour (hover to see other rain measurements)
** Current wind speed in m/s (hover to see current wind gust speed)